Time,TemperatureF,DewpointF,PressureIn,WindDirection,WindDirectionDegrees,WindSpeedMPH,WindSpeedGustMPH,Humidity,HourlyPrecipIn,Conditions,Clouds,dailyrainin,SolarRadiationWatts/m^2,SoftwareType,DateUTC
2013-02-11 00:01:00,27.0,10.0,-100.00,West,267,5.0,14.0,48,0.00,,,0.00,0.000000,,2013-02-11 08:01:00,
2013-02-11 00:11:00,27.0,10.0,-100.00,West,267,5.0,14.0,48,0.00,,,0.00,0.000000,,2013-02-11 08:11:00,
2013-02-11 00:21:00,27.0,10.0,-100.00,West,267,5.0,14.0,48,0.00,,,0.00,0.000000,,2013-02-11 08:21:00,
2013-02-11 00:52:00,27.0,10.0,-100.00,ESE,106,5.0,10.0,48,0.00,,,0.00,0.000000,,2013-02-11 08:52:00,
2013-02-11 01:01:00,27.0,10.0,-100.00,ESE,106,5.0,10.0,48,0.00,,,0.00,0.000000,,2013-02-11 09:01:00,
2013-02-11 01:12:00,27.0,10.0,-100.00,ESE,106,5.0,10.0,48,0.00,,,0.00,0.000000,,2013-02-11 09:12:00,
2013-02-11 01:21:00,27.0,10.0,-100.00,ESE,106,5.0,10.0,48,0.00,,,0.00,0.000000,,2013-02-11 09:21:00,
2013-02-11 01:52:00,27.0,10.0,-100.00,ESE,105,2.0,7.0,48,0.00,,,0.00,0.000000,,2013-02-11 09:52:00,
2013-02-11 02:01:00,27.0,10.0,-100.00,ESE,105,2.0,7.0,48,0.00,,,0.00,0.000000,,2013-02-11 10:01:00,
2013-02-11 02:11:00,27.0,10.0,-100.00,ESE,105,2.0,7.0,48,0.00,,,0.00,0.000000,,2013-02-11 10:11:00,
2013-02-11 02:21:00,27.0,10.0,-100.00,ESE,105,2.0,7.0,48,0.00,,,0.00,0.000000,,2013-02-11 10:21:00,
2013-02-11 02:52:00,25.0,10.0,-100.00,ENE,72,0.0,5.0,52,0.00,,,0.00,0.000000,,2013-02-11 10:52:00,
2013-02-11 03:01:00,25.0,10.0,-100.00,ENE,72,0.0,5.0,52,0.00,,,0.00,0.000000,,2013-02-11 11:01:00,
2013-02-11 03:11:00,25.0,10.0,-100.00,ENE,72,0.0,5.0,52,0.00,,,0.00,0.000000,,2013-02-11 11:11:00,
2013-02-11 03:22:00,25.0,10.0,-100.00,ENE,72,0.0,5.0,52,0.00,,,0.00,0.000000,,2013-02-11 11:22:00,
2013-02-11 03:52:00,24.0,9.0,-100.00,NE,44,2.0,8.0,51,0.00,,,0.00,0.000000,,2013-02-11 11:52:00,
2013-02-11 04:02:00,24.0,9.0,-100.00,NE,44,2.0,8.0,51,0.00,,,0.00,0.000000,,2013-02-11 12:02:00,
2013-02-11 04:12:00,24.0,9.0,-100.00,NE,44,2.0,8.0,51,0.00,,,0.00,0.000000,,2013-02-11 12:12:00,
2013-02-11 04:22:00,24.0,9.0,-100.00,NE,44,2.0,8.0,51,0.00,,,0.00,0.000000,,2013-02-11 12:22:00,
2013-02-11 04:52:00,24.0,8.0,-100.00,NE,52,3.0,9.0,49,0.00,,,-99.99,0.000000,,2013-02-11 12:52:00,
2013-02-11 05:01:00,24.0,8.0,-100.00,NE,52,3.0,9.0,49,0.00,,,-99.99,0.000000,,2013-02-11 13:01:00,
2013-02-11 05:11:00,24.0,8.0,-100.00,NE,52,3.0,9.0,49,0.00,,,-99.99,0.000000,,2013-02-11 13:11:00,
2013-02-11 05:21:00,24.0,8.0,-100.00,NE,52,3.0,9.0,49,0.00,,,-99.99,0.000000,,2013-02-11 13:21:00,
2013-02-11 05:52:00,24.0,7.0,-100.00,NNE,21,3.0,9.0,48,0.00,,,-99.99,0.000000,,2013-02-11 13:52:00,
2013-02-11 06:01:00,24.0,7.0,-100.00,NNE,21,3.0,9.0,48,0.00,,,-99.99,0.000000,,2013-02-11 14:01:00,
2013-02-11 06:11:00,24.0,7.0,-100.00,NNE,21,3.0,9.0,48,0.00,,,-99.99,0.000000,,2013-02-11 14:11:00,
2013-02-11 06:21:00,24.0,7.0,-100.00,NNE,21,3.0,9.0,48,0.00,,,-99.99,0.000000,,2013-02-11 14:21:00,
2013-02-11 06:53:00,24.0,7.0,-100.00,ENE,60,4.0,10.0,47,0.00,,,0.00,0.000000,,2013-02-11 14:53:00,
2013-02-11 07:01:00,24.0,7.0,-100.00,ENE,60,4.0,10.0,47,0.00,,,0.00,0.000000,,2013-02-11 15:01:00,
2013-02-11 07:11:00,24.0,7.0,-100.00,ENE,60,4.0,10.0,47,0.00,,,0.00,0.000000,,2013-02-11 15:11:00,
2013-02-11 07:22:00,24.0,7.0,-100.00,ENE,60,4.0,10.0,47,0.00,,,0.00,0.000000,,2013-02-11 15:22:00,
2013-02-11 07:52:00,28.0,6.0,-100.00,ENE,76,3.0,9.0,39,0.00,,,0.00,45.000000,,2013-02-11 15:52:00,
2013-02-11 08:01:00,28.0,6.0,-100.00,ENE,76,3.0,9.0,39,0.00,,,0.00,45.000000,,2013-02-11 16:01:00,
2013-02-11 08:11:00,28.0,6.0,-100.00,ENE,76,3.0,9.0,39,0.00,,,0.00,45.000000,,2013-02-11 16:11:00,
2013-02-11 08:21:00,28.0,6.0,-100.00,ENE,76,3.0,9.0,39,0.00,,,0.00,45.000000,,2013-02-11 16:21:00,
2013-02-11 08:52:00,32.0,8.0,-100.00,SSE,165,2.0,8.0,36,0.00,,,0.00,288.000000,,2013-02-11 16:52:00,
2013-02-11 09:01:00,32.0,8.0,-100.00,SSE,165,2.0,8.0,36,0.00,,,0.00,288.000000,,2013-02-11 17:01:00,
2013-02-11 09:11:00,32.0,8.0,-100.00,SSE,165,2.0,8.0,36,0.00,,,0.00,288.000000,,2013-02-11 17:11:00,
2013-02-11 09:21:00,32.0,8.0,-100.00,SSE,165,2.0,8.0,36,0.00,,,0.00,288.000000,,2013-02-11 17:21:00,
2013-02-11 09:53:00,32.0,7.0,-100.00,SW,215,6.0,9.0,35,0.00,,,0.00,534.000000,,2013-02-11 17:53:00,
2013-02-11 10:01:00,32.0,7.0,-100.00,SW,215,6.0,9.0,35,0.00,,,0.00,534.000000,,2013-02-11 18:01:00,
2013-02-11 10:11:00,32.0,7.0,-100.00,SW,215,6.0,9.0,35,0.00,,,0.00,534.000000,,2013-02-11 18:11:00,
2013-02-11 10:21:00,32.0,7.0,-100.00,SW,215,6.0,9.0,35,0.00,,,0.00,534.000000,,2013-02-11 18:21:00,
2013-02-11 10:53:00,34.0,7.0,-100.00,WSW,238,6.0,13.0,31,0.00,,,0.00,738.000000,,2013-02-11 18:53:00,
2013-02-11 11:01:00,34.0,7.0,-100.00,WSW,238,6.0,13.0,31,0.00,,,0.00,738.000000,,2013-02-11 19:01:00,
2013-02-11 11:11:00,34.0,7.0,-100.00,WSW,238,6.0,13.0,31,0.00,,,0.00,738.000000,,2013-02-11 19:11:00,
2013-02-11 11:21:00,34.0,7.0,-100.00,WSW,238,6.0,13.0,31,0.00,,,0.00,738.000000,,2013-02-11 19:21:00,
2013-02-11 12:52:00,38.0,8.0,-100.00,WSW,251,4.0,17.0,28,-99.99,,,0.00,929.000000,,2013-02-11 20:52:00,
2013-02-11 13:02:00,38.0,8.0,-100.00,WSW,251,4.0,17.0,28,-99.99,,,0.00,929.000000,,2013-02-11 21:02:00,
2013-02-11 13:11:00,38.0,8.0,-100.00,WSW,251,4.0,17.0,28,-99.99,,,0.00,929.000000,,2013-02-11 21:11:00,
2013-02-11 13:21:00,38.0,8.0,-100.00,WSW,251,4.0,17.0,28,-99.99,,,0.00,929.000000,,2013-02-11 21:21:00,
2013-02-11 13:52:00,41.0,5.0,-100.00,WSW,249,5.0,15.0,22,0.00,,,0.00,904.000000,,2013-02-11 21:52:00,
2013-02-11 14:01:00,41.0,5.0,-100.00,WSW,249,5.0,15.0,22,0.00,,,0.00,904.000000,,2013-02-11 22:01:00,
2013-02-11 14:11:00,41.0,5.0,-100.00,WSW,249,5.0,15.0,22,0.00,,,0.00,904.000000,,2013-02-11 22:11:00,
2013-02-11 14:21:00,41.0,5.0,-100.00,WSW,249,5.0,15.0,22,0.00,,,0.00,904.000000,,2013-02-11 22:21:00,
2013-02-11 14:52:00,40.0,6.0,-100.00,WSW,256,5.0,14.0,24,0.00,,,0.00,798.000000,,2013-02-11 22:52:00,
2013-02-11 15:01:00,40.0,6.0,-100.00,WSW,256,5.0,14.0,24,0.00,,,0.00,798.000000,,2013-02-11 23:01:00,
2013-02-11 15:11:00,40.0,6.0,-100.00,WSW,256,5.0,14.0,24,0.00,,,0.00,798.000000,,2013-02-11 23:11:00,
2013-02-11 15:21:00,40.0,6.0,-100.00,WSW,256,5.0,14.0,24,0.00,,,0.00,798.000000,,2013-02-11 23:21:00,
2013-02-11 15:52:00,36.0,-5.0,-100.00,SE,127,9.0,18.0,17,0.00,,,0.00,623.000000,,2013-02-11 23:52:00,
2013-02-11 16:01:00,36.0,-5.0,-100.00,SE,127,9.0,18.0,17,0.00,,,0.00,623.000000,,2013-02-12 00:01:00,
2013-02-11 16:11:00,36.0,-5.0,-100.00,SE,127,9.0,18.0,17,0.00,,,0.00,623.000000,,2013-02-12 00:11:00,
2013-02-11 16:21:00,36.0,-5.0,-100.00,SE,127,9.0,18.0,17,0.00,,,0.00,623.000000,,2013-02-12 00:21:00,
2013-02-11 16:52:00,35.0,-4.0,-100.00,East,95,8.0,17.0,18,0.00,,,0.00,389.000000,,2013-02-12 00:52:00,
2013-02-11 17:01:00,35.0,-4.0,-100.00,East,95,8.0,17.0,18,0.00,,,0.00,389.000000,,2013-02-12 01:01:00,
2013-02-11 17:11:00,35.0,-4.0,-100.00,East,95,8.0,17.0,18,0.00,,,0.00,389.000000,,2013-02-12 01:11:00,
2013-02-11 17:21:00,35.0,-4.0,-100.00,East,95,8.0,17.0,18,0.00,,,0.00,389.000000,,2013-02-12 01:21:00,
2013-02-11 17:52:00,32.0,-6.0,-100.00,East,88,9.0,12.0,19,0.00,,,0.00,127.000000,,2013-02-12 01:52:00,
2013-02-11 18:01:00,32.0,-6.0,-100.00,East,88,9.0,12.0,19,0.00,,,0.00,127.000000,,2013-02-12 02:01:00,
2013-02-11 18:11:00,32.0,-6.0,-100.00,East,88,9.0,12.0,19,0.00,,,0.00,127.000000,,2013-02-12 02:11:00,
2013-02-11 18:21:00,32.0,-6.0,-100.00,East,88,9.0,12.0,19,0.00,,,0.00,127.000000,,2013-02-12 02:21:00,
2013-02-11 18:52:00,30.0,-4.0,-100.00,East,84,8.0,14.0,22,0.00,,,-99.99,1.000000,,2013-02-12 02:52:00,
2013-02-11 19:02:00,30.0,-4.0,-100.00,East,84,8.0,14.0,22,0.00,,,-99.99,1.000000,,2013-02-12 03:02:00,
2013-02-11 19:11:00,30.0,-4.0,-100.00,East,84,8.0,14.0,22,0.00,,,-99.99,1.000000,,2013-02-12 03:11:00,
2013-02-11 19:21:00,30.0,-4.0,-100.00,East,84,8.0,14.0,22,0.00,,,-99.99,1.000000,,2013-02-12 03:21:00,
2013-02-11 19:52:00,30.0,-4.0,-100.00,SSE,147,4.0,10.0,22,0.00,,,0.00,0.000000,,2013-02-12 03:52:00,
2013-02-11 20:01:00,30.0,-4.0,-100.00,SSE,147,4.0,10.0,22,0.00,,,0.00,0.000000,,2013-02-12 04:01:00,
2013-02-11 20:11:00,30.0,-4.0,-100.00,SSE,147,4.0,10.0,22,0.00,,,0.00,0.000000,,2013-02-12 04:11:00,
2013-02-11 20:21:00,30.0,-4.0,-100.00,SSE,147,4.0,10.0,22,0.00,,,0.00,0.000000,,2013-02-12 04:21:00,
2013-02-11 20:52:00,30.0,-3.0,-100.00,South,186,3.0,6.0,23,0.00,,,0.00,0.000000,,2013-02-12 04:52:00,
2013-02-11 21:01:00,30.0,-3.0,-100.00,South,186,3.0,6.0,23,0.00,,,0.00,0.000000,,2013-02-12 05:01:00,
2013-02-11 21:11:00,30.0,-3.0,-100.00,South,186,3.0,6.0,23,0.00,,,0.00,0.000000,,2013-02-12 05:11:00,
2013-02-11 21:21:00,30.0,-3.0,-100.00,South,186,3.0,6.0,23,0.00,,,0.00,0.000000,,2013-02-12 05:21:00,
2013-02-11 21:52:00,28.0,0.0,-100.00,South,170,0.0,5.0,29,0.00,,,0.00,0.000000,,2013-02-12 05:52:00,
2013-02-11 22:01:00,28.0,0.0,-100.00,South,170,0.0,5.0,29,0.00,,,0.00,0.000000,,2013-02-12 06:01:00,
2013-02-11 22:12:00,28.0,0.0,-100.00,South,170,0.0,5.0,29,0.00,,,0.00,0.000000,,2013-02-12 06:12:00,
2013-02-11 22:21:00,28.0,0.0,-100.00,South,170,0.0,5.0,29,0.00,,,0.00,0.000000,,2013-02-12 06:21:00,
2013-02-11 22:52:00,30.0,-2.0,-100.00,NNW,341,2.0,3.0,25,0.00,,,0.00,0.000000,,2013-02-12 06:52:00,
2013-02-11 23:01:00,30.0,-2.0,-100.00,NNW,341,2.0,3.0,25,0.00,,,0.00,0.000000,,2013-02-12 07:01:00,
2013-02-11 23:11:00,30.0,-2.0,-100.00,NNW,341,2.0,3.0,25,0.00,,,0.00,0.000000,,2013-02-12 07:11:00,
2013-02-11 23:21:00,30.0,-2.0,-100.00,NNW,341,2.0,3.0,25,0.00,,,0.00,0.000000,,2013-02-12 07:21:00,
2013-02-11 23:52:00,30.0,1.0,-100.00,NNW,345,2.0,5.0,28,0.00,,,0.00,0.000000,,2013-02-12 07:52:00,